Year,Month,Day,Hour,Minute,Value (Times are PST for windgust in km/hr)
2015,12,12,00,00,1.60
2015,12,12,00,02,1.60
2015,12,12,00,03,1.60
2015,12,12,00,19,1.60
2015,12,12,00,20,1.60
2015,12,12,00,21,1.60
2015,12,12,00,22,1.60
2015,12,12,00,23,1.60
2015,12,12,00,24,1.60
2015,12,12,00,25,1.60
2015,12,12,00,26,3.20
2015,12,12,00,27,3.20
2015,12,12,00,28,3.20
2015,12,12,00,29,3.20
2015,12,12,00,30,3.20
2015,12,12,00,31,3.20
2015,12,12,00,32,3.20
2015,12,12,00,33,3.20
2015,12,12,00,34,3.20
2015,12,12,00,35,3.20
2015,12,12,00,36,1.60
2015,12,12,00,37,1.60
2015,12,12,00,38,1.60
2015,12,12,00,39,1.60
2015,12,12,00,40,1.60
2015,12,12,00,43,1.60
2015,12,12,00,44,1.60
2015,12,12,00,45,1.60
2015,12,12,00,46,1.60
2015,12,12,00,47,1.60
2015,12,12,00,48,1.60
2015,12,12,00,49,1.60
2015,12,12,00,50,1.60
2015,12,12,00,51,1.60
2015,12,12,00,52,1.60
2015,12,12,00,59,1.60
2015,12,12,01,00,1.60
2015,12,12,01,01,1.60
2015,12,12,01,17,1.60
2015,12,12,01,18,1.60
2015,12,12,01,19,1.60
2015,12,12,01,21,1.60
2015,12,12,01,22,1.60
2015,12,12,01,23,1.60
2015,12,12,01,24,1.60
2015,12,12,01,25,1.60
2015,12,12,01,29,1.60
2015,12,12,01,33,1.60
2015,12,12,01,34,1.60
2015,12,12,01,35,1.60
2015,12,12,01,36,3.20
2015,12,12,01,37,3.20
2015,12,12,01,38,1.60
2015,12,12,01,39,1.60
2015,12,12,01,40,1.60
2015,12,12,01,41,1.60
2015,12,12,01,42,1.60
2015,12,12,01,46,1.60
2015,12,12,01,47,1.60
2015,12,12,01,48,1.60
2015,12,12,01,49,1.60
2015,12,12,01,50,1.60
2015,12,12,01,56,1.60
2015,12,12,01,57,1.60
2015,12,12,01,58,1.60
2015,12,12,01,59,1.60
2015,12,12,02,00,1.60
2015,12,12,02,01,1.60
2015,12,12,02,02,1.60
2015,12,12,02,03,1.60
2015,12,12,02,04,1.60
2015,12,12,02,05,1.60
2015,12,12,02,06,1.60
2015,12,12,02,07,1.60
2015,12,12,02,08,1.60
2015,12,12,02,09,1.60
2015,12,12,02,10,1.60
2015,12,12,02,11,3.20
2015,12,12,02,12,3.20
2015,12,12,02,13,3.20
2015,12,12,02,14,3.20
2015,12,12,02,15,1.60
2015,12,12,02,16,1.60
2015,12,12,02,17,1.60
2015,12,12,02,18,1.60
2015,12,12,02,19,1.60
2015,12,12,02,20,1.60
2015,12,12,02,21,1.60
2015,12,12,02,22,1.60
2015,12,12,02,23,1.60
2015,12,12,02,25,1.60
2015,12,12,02,26,1.60
2015,12,12,02,27,1.60
2015,12,12,02,28,1.60
2015,12,12,02,29,1.60
2015,12,12,02,30,3.20
2015,12,12,02,31,1.60
2015,12,12,02,32,3.20
2015,12,12,02,33,1.60
2015,12,12,02,34,1.60
2015,12,12,02,35,1.60
2015,12,12,02,36,1.60
2015,12,12,02,37,1.60
2015,12,12,02,38,1.60
2015,12,12,02,39,1.60
2015,12,12,02,40,1.60
2015,12,12,02,43,1.60
2015,12,12,02,44,1.60
2015,12,12,02,45,1.60
2015,12,12,02,46,1.60
2015,12,12,02,47,1.60
2015,12,12,02,48,1.60
2015,12,12,02,49,1.60
2015,12,12,02,51,1.60
2015,12,12,02,52,1.60
2015,12,12,02,53,1.60
2015,12,12,02,54,1.60
2015,12,12,02,55,1.60
2015,12,12,02,56,1.60
2015,12,12,02,57,3.20
2015,12,12,02,58,3.20
2015,12,12,02,59,1.60
2015,12,12,03,00,3.20
2015,12,12,03,01,3.20
2015,12,12,03,02,1.60
2015,12,12,03,03,1.60
2015,12,12,03,04,3.20
2015,12,12,03,05,1.60
2015,12,12,03,06,3.20
2015,12,12,03,07,1.60
2015,12,12,03,08,1.60
2015,12,12,03,09,1.60
2015,12,12,03,10,1.60
2015,12,12,03,11,1.60
2015,12,12,03,12,1.60
2015,12,12,03,13,1.60
2015,12,12,03,14,1.60
2015,12,12,03,15,1.60
2015,12,12,03,16,1.60
2015,12,12,03,21,1.60
2015,12,12,03,23,1.60
2015,12,12,03,24,1.60
2015,12,12,03,25,1.60
2015,12,12,03,26,1.60
2015,12,12,03,27,1.60
2015,12,12,03,28,1.60
2015,12,12,03,30,1.60
2015,12,12,03,31,1.60
2015,12,12,03,32,1.60
2015,12,12,03,33,1.60
2015,12,12,03,40,1.60
2015,12,12,03,41,1.60
2015,12,12,03,42,1.60
2015,12,12,03,45,1.60
2015,12,12,03,46,1.60
2015,12,12,03,47,1.60
2015,12,12,03,48,1.60
2015,12,12,03,51,1.60
2015,12,12,03,52,1.60
2015,12,12,03,53,1.60
2015,12,12,03,54,1.60
2015,12,12,03,55,1.60
2015,12,12,03,56,1.60
2015,12,12,03,57,1.60
2015,12,12,03,58,1.60
2015,12,12,03,59,1.60
2015,12,12,04,00,1.60
2015,12,12,04,04,1.60
2015,12,12,04,05,1.60
2015,12,12,04,07,1.60
2015,12,12,04,08,1.60
2015,12,12,04,09,1.60
2015,12,12,04,10,1.60
2015,12,12,04,11,1.60
2015,12,12,04,13,1.60
2015,12,12,04,14,1.60
2015,12,12,04,15,1.60
2015,12,12,04,16,3.20
2015,12,12,04,17,3.20
2015,12,12,04,18,3.20
2015,12,12,04,19,3.20
2015,12,12,04,20,3.20
2015,12,12,04,21,1.60
2015,12,12,04,22,3.20
2015,12,12,04,23,3.20
2015,12,12,04,24,1.60
2015,12,12,04,25,1.60
2015,12,12,04,27,1.60
2015,12,12,04,28,3.20
2015,12,12,04,29,3.20
2015,12,12,04,30,3.20
2015,12,12,04,31,4.80
2015,12,12,04,32,4.80
2015,12,12,04,33,3.20
2015,12,12,04,34,4.80
2015,12,12,04,35,3.20
2015,12,12,04,36,3.20
2015,12,12,04,37,3.20
2015,12,12,04,38,3.20
2015,12,12,04,39,1.60
2015,12,12,04,40,1.60
2015,12,12,04,41,3.20
2015,12,12,04,42,3.20
2015,12,12,04,43,3.20
2015,12,12,04,44,3.20
2015,12,12,04,45,3.20
2015,12,12,04,46,3.20
2015,12,12,04,47,3.20
2015,12,12,04,48,3.20
2015,12,12,04,49,3.20
2015,12,12,04,50,3.20
2015,12,12,04,51,3.20
2015,12,12,04,52,3.20
2015,12,12,04,53,3.20
2015,12,12,04,54,3.20
2015,12,12,04,55,3.20
2015,12,12,04,56,3.20
2015,12,12,04,57,3.20
2015,12,12,04,58,3.20
2015,12,12,04,59,3.20
2015,12,12,05,00,3.20
2015,12,12,05,01,3.20
2015,12,12,05,02,3.20
2015,12,12,05,03,3.20
2015,12,12,05,04,3.20
2015,12,12,05,05,4.80
2015,12,12,05,06,3.20
2015,12,12,05,07,3.20
2015,12,12,05,08,3.20
2015,12,12,05,09,3.20
2015,12,12,05,10,3.20
2015,12,12,05,11,1.60
2015,12,12,05,12,1.60
2015,12,12,05,13,1.60
2015,12,12,05,14,1.60
2015,12,12,05,15,1.60
2015,12,12,05,16,1.60
2015,12,12,05,20,1.60
2015,12,12,05,21,1.60
2015,12,12,05,22,1.60
2015,12,12,05,23,3.20
2015,12,12,05,24,1.60
2015,12,12,05,25,1.60
2015,12,12,05,26,1.60
2015,12,12,05,27,1.60
2015,12,12,05,28,1.60
2015,12,12,05,29,3.20
2015,12,12,05,30,3.20
2015,12,12,05,31,3.20
2015,12,12,05,32,3.20
2015,12,12,05,33,1.60
2015,12,12,05,34,4.80
2015,12,12,05,35,4.80
2015,12,12,05,36,1.60
2015,12,12,05,37,1.60
2015,12,12,05,38,1.60
2015,12,12,05,39,3.20
2015,12,12,05,40,3.20
2015,12,12,05,41,6.40
2015,12,12,05,42,3.20
2015,12,12,05,43,1.60
2015,12,12,05,44,3.20
2015,12,12,05,45,1.60
2015,12,12,05,46,1.60
2015,12,12,05,47,1.60
2015,12,12,05,48,3.20
2015,12,12,05,49,3.20
2015,12,12,05,50,3.20
2015,12,12,05,51,3.20
2015,12,12,05,52,3.20
2015,12,12,05,53,3.20
2015,12,12,05,54,3.20
2015,12,12,05,55,4.80
2015,12,12,05,56,3.20
2015,12,12,05,57,3.20
2015,12,12,05,58,1.60
2015,12,12,06,00,1.60
2015,12,12,06,01,4.80
2015,12,12,06,02,4.80
2015,12,12,06,03,1.60
2015,12,12,06,04,3.20
2015,12,12,06,05,1.60
2015,12,12,06,06,3.20
2015,12,12,06,07,4.80
2015,12,12,06,08,3.20
2015,12,12,06,09,1.60
2015,12,12,06,10,1.60
2015,12,12,06,11,4.80
2015,12,12,06,12,4.80
2015,12,12,06,13,4.80
2015,12,12,06,14,1.60
2015,12,12,06,15,1.60
2015,12,12,06,16,3.20
2015,12,12,06,17,1.60
2015,12,12,06,18,3.20
2015,12,12,06,19,4.80
2015,12,12,06,20,4.80
2015,12,12,06,21,3.20
2015,12,12,06,22,1.60
2015,12,12,06,23,3.20
2015,12,12,06,24,1.60
2015,12,12,06,25,3.20
2015,12,12,06,26,4.80
2015,12,12,06,27,9.60
2015,12,12,06,28,9.60
2015,12,12,06,29,4.80
2015,12,12,06,30,3.20
2015,12,12,06,31,4.80
2015,12,12,06,32,8.10
2015,12,12,06,33,8.10
2015,12,12,06,34,4.80
2015,12,12,06,35,4.80
2015,12,12,06,36,6.40
2015,12,12,06,37,9.60
2015,12,12,06,38,6.40
2015,12,12,06,39,3.20
2015,12,12,06,40,3.20
2015,12,12,06,41,3.20
2015,12,12,06,43,4.80
2015,12,12,06,44,8.10
2015,12,12,06,45,6.40
2015,12,12,06,46,6.40
2015,12,12,06,47,3.20
2015,12,12,06,48,4.80
2015,12,12,06,49,3.20
2015,12,12,06,50,3.20
2015,12,12,06,51,3.20
2015,12,12,06,52,3.20
2015,12,12,06,53,3.20
2015,12,12,06,54,3.20
2015,12,12,06,55,3.20
2015,12,12,06,56,1.60
2015,12,12,06,57,3.20
2015,12,12,06,58,4.80
2015,12,12,06,59,4.80
2015,12,12,07,00,6.40
2015,12,12,07,01,6.40
2015,12,12,07,02,1.60
2015,12,12,07,03,4.80
2015,12,12,07,04,3.20
2015,12,12,07,05,3.20
2015,12,12,07,06,4.80
2015,12,12,07,07,1.60
2015,12,12,07,08,3.20
2015,12,12,07,09,4.80
2015,12,12,07,10,4.80
2015,12,12,07,11,3.20
2015,12,12,07,12,4.80
2015,12,12,07,13,3.20
2015,12,12,07,14,3.20
2015,12,12,07,15,3.20
2015,12,12,07,16,3.20
2015,12,12,07,17,3.20
2015,12,12,07,18,3.20
2015,12,12,07,19,6.40
2015,12,12,07,20,4.80
2015,12,12,07,21,1.60
2015,12,12,07,22,1.60
2015,12,12,07,23,1.60
2015,12,12,07,25,1.60
2015,12,12,07,26,3.20
2015,12,12,07,27,1.60
2015,12,12,07,28,3.20
2015,12,12,07,29,1.60
2015,12,12,07,30,4.80
2015,12,12,07,31,3.20
2015,12,12,07,32,1.60
2015,12,12,07,33,1.60
2015,12,12,07,34,1.60
2015,12,12,07,36,1.60
2015,12,12,07,37,3.20
2015,12,12,07,38,3.20
2015,12,12,07,39,3.20
2015,12,12,07,40,3.20
2015,12,12,07,41,4.80
2015,12,12,07,42,4.80
2015,12,12,07,43,1.60
2015,12,12,07,44,1.60
2015,12,12,07,45,6.40
2015,12,12,07,46,4.80
2015,12,12,07,47,3.20
2015,12,12,07,48,3.20
2015,12,12,07,49,8.10
2015,12,12,07,50,8.10
2015,12,12,07,51,8.10
2015,12,12,07,52,3.20
2015,12,12,07,53,3.20
2015,12,12,07,54,1.60
2015,12,12,07,55,4.80
2015,12,12,07,56,6.40
2015,12,12,07,57,4.80
2015,12,12,07,58,3.20
2015,12,12,07,59,3.20
2015,12,12,08,00,3.20
2015,12,12,08,01,3.20
2015,12,12,08,02,3.20
2015,12,12,08,03,1.60
2015,12,12,08,04,3.20
2015,12,12,08,05,3.20
2015,12,12,08,06,3.20
2015,12,12,08,07,3.20
2015,12,12,08,08,3.20
2015,12,12,08,09,1.60
2015,12,12,08,10,1.60
2015,12,12,08,11,1.60
2015,12,12,08,12,4.80
2015,12,12,08,13,4.80
2015,12,12,08,14,3.20
2015,12,12,08,15,3.20
2015,12,12,08,16,3.20
2015,12,12,08,17,3.20
2015,12,12,08,18,1.60
2015,12,12,08,19,3.20
2015,12,12,08,20,3.20
2015,12,12,08,21,3.20
2015,12,12,08,22,4.80
2015,12,12,08,23,3.20
2015,12,12,08,24,1.60
2015,12,12,08,25,3.20
2015,12,12,08,26,4.80
2015,12,12,08,27,1.60
2015,12,12,08,28,1.60
2015,12,12,08,29,1.60
2015,12,12,08,30,1.60
2015,12,12,08,31,1.60
2015,12,12,08,32,1.60
2015,12,12,08,33,1.60
2015,12,12,08,34,3.20
2015,12,12,08,35,3.20
2015,12,12,08,36,1.60
2015,12,12,08,37,3.20
2015,12,12,08,38,3.20
2015,12,12,08,39,1.60
2015,12,12,08,40,3.20
2015,12,12,08,41,3.20
2015,12,12,08,42,3.20
2015,12,12,08,43,3.20
2015,12,12,08,44,3.20
2015,12,12,08,45,3.20
2015,12,12,08,46,1.60
2015,12,12,08,47,1.60
2015,12,12,08,48,3.20
2015,12,12,08,49,1.60
2015,12,12,08,50,3.20
2015,12,12,08,51,3.20
2015,12,12,08,52,1.60
2015,12,12,08,53,3.20
2015,12,12,08,54,3.20
2015,12,12,08,55,3.20
2015,12,12,08,56,1.60
2015,12,12,08,57,1.60
2015,12,12,08,58,3.20
2015,12,12,08,59,1.60
2015,12,12,09,00,1.60
2015,12,12,09,02,1.60
2015,12,12,09,05,1.60
2015,12,12,09,06,1.60
2015,12,12,09,07,1.60
2015,12,12,09,08,1.60
2015,12,12,09,10,1.60
2015,12,12,09,11,1.60
2015,12,12,09,12,4.80
2015,12,12,09,13,1.60
2015,12,12,09,14,3.20
2015,12,12,09,15,3.20
2015,12,12,09,16,3.20
2015,12,12,09,17,4.80
2015,12,12,09,18,3.20
2015,12,12,09,19,3.20
2015,12,12,09,20,1.60
2015,12,12,09,21,1.60
2015,12,12,09,22,1.60
2015,12,12,09,23,3.20
2015,12,12,09,24,1.60
2015,12,12,09,25,1.60
2015,12,12,09,26,3.20
2015,12,12,09,27,1.60
2015,12,12,09,28,3.20
2015,12,12,09,29,3.20
2015,12,12,09,30,1.60
2015,12,12,09,31,3.20
2015,12,12,09,32,3.20
2015,12,12,09,33,1.60
2015,12,12,09,34,1.60
2015,12,12,09,35,1.60
2015,12,12,09,36,1.60
2015,12,12,09,37,1.60
2015,12,12,09,38,3.20
2015,12,12,09,39,3.20
2015,12,12,09,40,3.20
2015,12,12,09,41,1.60
2015,12,12,09,42,3.20
2015,12,12,09,43,1.60
2015,12,12,09,44,3.20
2015,12,12,09,45,3.20
2015,12,12,09,46,3.20
2015,12,12,09,47,3.20
2015,12,12,09,48,6.40
2015,12,12,09,49,6.40
2015,12,12,09,50,4.80
2015,12,12,09,51,8.10
2015,12,12,09,52,4.80
2015,12,12,09,53,6.40
2015,12,12,09,54,9.60
2015,12,12,09,55,6.40
2015,12,12,09,56,6.40
2015,12,12,09,57,6.40
2015,12,12,09,58,17.70
2015,12,12,09,59,4.80
2015,12,12,10,00,3.20
2015,12,12,10,01,14.50
2015,12,12,10,02,11.30
2015,12,12,10,03,11.30
2015,12,12,10,04,8.10
2015,12,12,10,05,3.20
2015,12,12,10,06,9.60
2015,12,12,10,07,9.60
2015,12,12,10,08,8.10
2015,12,12,10,09,4.80
2015,12,12,10,10,9.60
2015,12,12,10,11,16.10
2015,12,12,10,12,16.10
2015,12,12,10,13,14.50
2015,12,12,10,14,9.60
2015,12,12,10,15,14.50
2015,12,12,10,16,9.60
2015,12,12,10,17,8.10
2015,12,12,10,18,20.90
2015,12,12,10,19,9.60
2015,12,12,10,20,17.70
2015,12,12,10,21,14.50
2015,12,12,10,22,11.30
2015,12,12,10,23,8.10
2015,12,12,10,24,14.50
2015,12,12,10,25,14.50
2015,12,12,10,26,14.50
2015,12,12,10,27,19.30
2015,12,12,10,28,17.70
2015,12,12,10,29,17.70
2015,12,12,10,30,19.30
2015,12,12,10,31,17.70
2015,12,12,10,32,6.40
2015,12,12,10,33,16.10
2015,12,12,10,34,9.60
2015,12,12,10,35,9.60
2015,12,12,10,36,8.10
2015,12,12,10,37,20.90
2015,12,12,10,38,11.30
2015,12,12,10,39,14.50
2015,12,12,10,40,22.50
2015,12,12,10,41,6.40
2015,12,12,10,42,9.60
2015,12,12,10,43,17.70
2015,12,12,10,44,17.70
2015,12,12,10,45,24.20
2015,12,12,10,46,17.70
2015,12,12,10,47,19.30
2015,12,12,10,48,24.20
2015,12,12,10,49,16.10
2015,12,12,10,50,9.60
2015,12,12,10,51,3.20
2015,12,12,10,52,11.30
2015,12,12,10,53,16.10
2015,12,12,10,54,8.10
2015,12,12,10,55,14.50
2015,12,12,10,56,24.20
2015,12,12,10,57,17.70
2015,12,12,10,58,24.20
2015,12,12,10,59,24.20
2015,12,12,11,00,25.70
2015,12,12,11,01,8.10
2015,12,12,11,02,20.90
2015,12,12,11,03,17.70
2015,12,12,11,04,14.50
2015,12,12,11,05,27.40
2015,12,12,11,06,16.10
2015,12,12,11,07,20.90
2015,12,12,11,08,20.90
2015,12,12,11,09,33.80
2015,12,12,11,10,17.70
2015,12,12,11,11,16.10
2015,12,12,11,12,24.20
2015,12,12,11,13,14.50
2015,12,12,11,14,17.70
2015,12,12,11,15,16.10
2015,12,12,11,16,16.10
2015,12,12,11,17,16.10
2015,12,12,11,18,11.30
2015,12,12,11,19,22.50
2015,12,12,11,20,17.70
2015,12,12,11,21,19.30
2015,12,12,11,22,19.30
2015,12,12,11,23,20.90
2015,12,12,11,24,27.40
2015,12,12,11,25,24.20
2015,12,12,11,26,25.70
2015,12,12,11,27,17.70
2015,12,12,11,28,16.10
2015,12,12,11,29,9.60
2015,12,12,11,30,19.30
2015,12,12,11,31,33.80
2015,12,12,11,32,24.20
2015,12,12,11,33,20.90
2015,12,12,11,34,20.90
2015,12,12,11,35,35.40
2015,12,12,11,36,20.90
2015,12,12,11,37,19.30
2015,12,12,11,38,20.90
2015,12,12,11,39,22.50
2015,12,12,11,40,25.70
2015,12,12,11,41,17.70
2015,12,12,11,42,25.70
2015,12,12,11,43,27.40
2015,12,12,11,44,22.50
2015,12,12,11,45,19.30
2015,12,12,11,46,22.50
2015,12,12,11,47,20.90
2015,12,12,11,48,17.70
2015,12,12,11,49,20.90
2015,12,12,11,50,14.50
2015,12,12,11,51,29.00
2015,12,12,11,52,16.10
2015,12,12,11,53,20.90
2015,12,12,11,54,20.90
2015,12,12,11,55,20.90
2015,12,12,11,56,27.40
2015,12,12,11,57,22.50
2015,12,12,11,58,33.80
2015,12,12,11,59,19.30
2015,12,12,12,00,17.70
2015,12,12,12,01,32.20
2015,12,12,12,02,27.40
2015,12,12,12,03,17.70
2015,12,12,12,04,25.70
2015,12,12,12,05,27.40
2015,12,12,12,06,41.80
2015,12,12,12,07,22.50
2015,12,12,12,08,40.20
2015,12,12,12,09,45.10
2015,12,12,12,10,11.30
2015,12,12,12,11,16.10
2015,12,12,12,12,30.60
2015,12,12,12,13,22.50
2015,12,12,12,14,24.20
2015,12,12,12,15,33.80
2015,12,12,12,16,27.40
2015,12,12,12,17,33.80
2015,12,12,12,18,33.80
2015,12,12,12,19,20.90
2015,12,12,12,20,29.00
2015,12,12,12,21,35.40
2015,12,12,12,22,24.20
2015,12,12,12,23,27.40
2015,12,12,12,24,29.00
2015,12,12,12,25,29.00
2015,12,12,12,26,25.70
2015,12,12,12,27,17.70
2015,12,12,12,28,22.50
2015,12,12,12,29,35.40
2015,12,12,12,30,41.80
2015,12,12,12,31,27.40
2015,12,12,12,32,22.50
2015,12,12,12,33,27.40
2015,12,12,12,34,22.50
2015,12,12,12,35,27.40
2015,12,12,12,36,37.00
2015,12,12,12,37,22.50
2015,12,12,12,38,29.00
2015,12,12,12,39,20.90
2015,12,12,12,40,19.30
2015,12,12,12,41,8.10
2015,12,12,12,42,25.70
2015,12,12,12,43,30.60
2015,12,12,12,44,20.90
2015,12,12,12,45,16.10
2015,12,12,12,46,32.20
2015,12,12,12,47,19.30
2015,12,12,12,48,19.30
2015,12,12,12,49,17.70
2015,12,12,12,50,29.00
2015,12,12,12,51,22.50
2015,12,12,12,52,25.70
2015,12,12,12,53,24.20
2015,12,12,12,54,24.20
2015,12,12,12,55,14.50
2015,12,12,12,56,27.40
2015,12,12,12,57,20.90
2015,12,12,12,58,14.50
2015,12,12,12,59,22.50
2015,12,12,13,00,19.30
2015,12,12,13,01,24.20
2015,12,12,13,02,29.00
2015,12,12,13,03,22.50
2015,12,12,13,04,14.50
2015,12,12,13,05,20.90
2015,12,12,13,06,24.20
2015,12,12,13,07,27.40
2015,12,12,13,08,29.00
2015,12,12,13,09,20.90
2015,12,12,13,10,19.30
2015,12,12,13,11,32.20
2015,12,12,13,12,37.00
2015,12,12,13,13,24.20
2015,12,12,13,14,17.70
2015,12,12,13,15,22.50
2015,12,12,13,16,24.20
2015,12,12,13,17,17.70
2015,12,12,13,18,14.50
2015,12,12,13,19,30.60
2015,12,12,13,20,32.20
2015,12,12,13,21,43.50
2015,12,12,13,22,22.50
2015,12,12,13,23,30.60
2015,12,12,13,24,30.60
2015,12,12,13,25,24.20
2015,12,12,13,26,30.60
2015,12,12,13,27,25.70
2015,12,12,13,28,24.20
2015,12,12,13,29,24.20
2015,12,12,13,30,29.00
2015,12,12,13,31,37.00
2015,12,12,13,32,19.30
2015,12,12,13,33,16.10
2015,12,12,13,34,19.30
2015,12,12,13,35,29.00
2015,12,12,13,36,17.70
2015,12,12,13,37,30.60
2015,12,12,13,38,17.70
2015,12,12,13,39,11.30
2015,12,12,13,40,22.50
2015,12,12,13,41,27.40
2015,12,12,13,42,22.50
2015,12,12,13,43,22.50
2015,12,12,13,44,24.20
2015,12,12,13,45,40.20
2015,12,12,13,46,22.50
2015,12,12,13,47,29.00
2015,12,12,13,48,27.40
2015,12,12,13,49,14.50
2015,12,12,13,50,20.90
2015,12,12,13,51,19.30
2015,12,12,13,52,22.50
2015,12,12,13,53,30.60
2015,12,12,13,54,20.90
2015,12,12,13,55,11.30
2015,12,12,13,56,22.50
2015,12,12,13,57,29.00
2015,12,12,13,58,11.30
2015,12,12,13,59,32.20
2015,12,12,14,00,20.90
2015,12,12,14,01,12.90
2015,12,12,14,02,14.50
2015,12,12,14,03,20.90
2015,12,12,14,04,25.70
2015,12,12,14,05,38.60
2015,12,12,14,06,27.40
2015,12,12,14,07,22.50
2015,12,12,14,08,35.40
2015,12,12,14,09,30.60
2015,12,12,14,10,20.90
2015,12,12,14,11,33.80
2015,12,12,14,12,20.90
2015,12,12,14,13,22.50
2015,12,12,14,14,16.10
2015,12,12,14,15,20.90
2015,12,12,14,16,33.80
2015,12,12,14,17,20.90
2015,12,12,14,18,24.20
2015,12,12,14,19,20.90
2015,12,12,14,20,22.50
2015,12,12,14,21,27.40
2015,12,12,14,22,19.30
2015,12,12,14,23,29.00
2015,12,12,14,24,20.90
2015,12,12,14,25,29.00
2015,12,12,14,26,27.40
2015,12,12,14,27,29.00
2015,12,12,14,28,17.70
2015,12,12,14,29,16.10
2015,12,12,14,30,24.20
2015,12,12,14,31,30.60
2015,12,12,14,32,9.60
2015,12,12,14,33,22.50
2015,12,12,14,34,20.90
2015,12,12,14,35,14.50
2015,12,12,14,36,30.60
2015,12,12,14,37,22.50
2015,12,12,14,38,25.70
2015,12,12,14,39,32.20
2015,12,12,14,40,24.20
2015,12,12,14,41,19.30
2015,12,12,14,42,25.70
2015,12,12,14,43,16.10
2015,12,12,14,44,22.50
2015,12,12,14,45,33.80
2015,12,12,14,46,35.40
2015,12,12,14,47,27.40
2015,12,12,14,48,19.30
2015,12,12,14,49,27.40
2015,12,12,14,50,20.90
2015,12,12,14,51,11.30
2015,12,12,14,52,27.40
2015,12,12,14,53,38.60
2015,12,12,14,54,32.20
2015,12,12,14,55,25.70
2015,12,12,14,56,20.90
2015,12,12,14,57,22.50
2015,12,12,14,58,8.10
2015,12,12,14,59,20.90
2015,12,12,15,00,25.70
2015,12,12,15,01,29.00
2015,12,12,15,02,20.90
2015,12,12,15,03,11.30
2015,12,12,15,04,16.10
2015,12,12,15,05,16.10
2015,12,12,15,06,30.60
2015,12,12,15,07,16.10
2015,12,12,15,08,17.70
2015,12,12,15,09,17.70
2015,12,12,15,10,32.20
2015,12,12,15,11,32.20
2015,12,12,15,12,14.50
2015,12,12,15,13,19.30
2015,12,12,15,14,22.50
2015,12,12,15,15,19.30
2015,12,12,15,16,24.20
2015,12,12,15,17,22.50
2015,12,12,15,18,19.30
2015,12,12,15,19,14.50
2015,12,12,15,20,17.70
2015,12,12,15,21,29.00
2015,12,12,15,22,16.10
2015,12,12,15,23,20.90
2015,12,12,15,24,20.90
2015,12,12,15,25,14.50
2015,12,12,15,26,19.30
2015,12,12,15,27,17.70
2015,12,12,15,28,14.50
2015,12,12,15,29,8.10
2015,12,12,15,30,27.40
2015,12,12,15,31,29.00
2015,12,12,15,32,11.30
2015,12,12,15,33,25.70
2015,12,12,15,34,17.70
2015,12,12,15,35,20.90
2015,12,12,15,36,9.60
2015,12,12,15,37,41.80
2015,12,12,15,38,9.60
2015,12,12,15,39,17.70
2015,12,12,15,40,20.90
2015,12,12,15,41,19.30
2015,12,12,15,42,11.30
2015,12,12,15,43,9.60
2015,12,12,15,44,17.70
2015,12,12,15,45,22.50
2015,12,12,15,46,30.60
2015,12,12,15,47,6.40
2015,12,12,15,48,8.10
2015,12,12,15,49,9.60
2015,12,12,15,50,17.70
2015,12,12,15,51,27.40
2015,12,12,15,52,19.30
2015,12,12,15,53,11.30
2015,12,12,15,54,16.10
2015,12,12,15,55,14.50
2015,12,12,15,56,22.50
2015,12,12,15,57,14.50
2015,12,12,15,58,20.90
2015,12,12,15,59,17.70
2015,12,12,16,00,11.30
2015,12,12,16,01,6.40
2015,12,12,16,02,9.60
2015,12,12,16,03,19.30
2015,12,12,16,04,14.50
2015,12,12,16,05,16.10
2015,12,12,16,06,12.90
2015,12,12,16,07,14.50
2015,12,12,16,08,19.30
2015,12,12,16,09,6.40
2015,12,12,16,10,11.30
2015,12,12,16,11,19.30
2015,12,12,16,12,9.60
2015,12,12,16,13,14.50
2015,12,12,16,14,12.90
2015,12,12,16,15,14.50
2015,12,12,16,16,22.50
2015,12,12,16,17,16.10
2015,12,12,16,18,6.40
2015,12,12,16,19,9.60
2015,12,12,16,20,11.30
2015,12,12,16,21,16.10
2015,12,12,16,22,11.30
2015,12,12,16,23,16.10
2015,12,12,16,24,16.10
2015,12,12,16,25,9.60
2015,12,12,16,26,9.60
2015,12,12,16,27,9.60
2015,12,12,16,28,9.60
2015,12,12,16,29,11.30
2015,12,12,16,30,8.10
2015,12,12,16,31,6.40
2015,12,12,16,32,9.60
2015,12,12,16,33,9.60
2015,12,12,16,34,25.70
2015,12,12,16,35,11.30
2015,12,12,16,36,9.60
2015,12,12,16,37,11.30
2015,12,12,16,38,14.50
2015,12,12,16,39,16.10
2015,12,12,16,40,16.10
2015,12,12,16,41,25.70
2015,12,12,16,42,11.30
2015,12,12,16,43,11.30
2015,12,12,16,44,24.20
2015,12,12,16,45,16.10
2015,12,12,16,46,22.50
2015,12,12,16,47,9.60
2015,12,12,16,48,11.30
2015,12,12,16,49,22.50
2015,12,12,16,50,8.10
2015,12,12,16,51,19.30
2015,12,12,16,52,14.50
2015,12,12,16,53,11.30
2015,12,12,16,54,16.10
2015,12,12,16,55,12.90
2015,12,12,16,56,8.10
2015,12,12,16,57,9.60
2015,12,12,16,58,11.30
2015,12,12,16,59,11.30
2015,12,12,17,00,8.10
2015,12,12,17,01,8.10
2015,12,12,17,02,11.30
2015,12,12,17,03,8.10
2015,12,12,17,04,9.60
2015,12,12,17,05,9.60
2015,12,12,17,06,14.50
2015,12,12,17,07,12.90
2015,12,12,17,08,16.10
2015,12,12,17,09,14.50
2015,12,12,17,10,9.60
2015,12,12,17,11,9.60
2015,12,12,17,12,8.10
2015,12,12,17,13,19.30
2015,12,12,17,14,6.40
2015,12,12,17,15,8.10
2015,12,12,17,16,14.50
2015,12,12,17,17,14.50
2015,12,12,17,18,16.10
2015,12,12,17,19,8.10
2015,12,12,17,20,6.40
2015,12,12,17,21,9.60
2015,12,12,17,22,4.80
2015,12,12,17,23,8.10
2015,12,12,17,24,6.40
2015,12,12,17,25,8.10
2015,12,12,17,26,8.10
2015,12,12,17,27,17.70
2015,12,12,17,28,9.60
2015,12,12,17,29,6.40
2015,12,12,17,30,6.40
2015,12,12,17,31,3.20
2015,12,12,17,32,4.80
2015,12,12,17,33,3.20
2015,12,12,17,34,17.70
2015,12,12,17,35,6.40
2015,12,12,17,36,6.40
2015,12,12,17,37,4.80
2015,12,12,17,38,11.30
2015,12,12,17,39,9.60
2015,12,12,17,40,14.50
2015,12,12,17,41,6.40
2015,12,12,17,42,8.10
2015,12,12,17,43,11.30
2015,12,12,17,44,16.10
2015,12,12,17,45,17.70
2015,12,12,17,46,14.50
2015,12,12,17,47,8.10
2015,12,12,17,48,4.80
2015,12,12,17,49,6.40
2015,12,12,17,50,6.40
2015,12,12,17,51,12.90
2015,12,12,17,52,6.40
2015,12,12,17,53,8.10
2015,12,12,17,54,9.60
2015,12,12,17,55,12.90
2015,12,12,17,56,8.10
2015,12,12,17,57,4.80
2015,12,12,17,58,14.50
2015,12,12,17,59,6.40
2015,12,12,18,00,20.90
2015,12,12,18,01,20.90
2015,12,12,18,02,8.10
2015,12,12,18,03,4.80
2015,12,12,18,04,9.60
2015,12,12,18,05,4.80
2015,12,12,18,06,8.10
2015,12,12,18,07,9.60
2015,12,12,18,08,8.10
2015,12,12,18,09,11.30
2015,12,12,18,10,14.50
2015,12,12,18,11,8.10
2015,12,12,18,12,12.90
2015,12,12,18,13,17.70
2015,12,12,18,14,22.50
2015,12,12,18,15,17.70
2015,12,12,18,16,12.90
2015,12,12,18,17,20.90
2015,12,12,18,18,19.30
2015,12,12,18,19,11.30
2015,12,12,18,20,9.60
2015,12,12,18,21,8.10
2015,12,12,18,22,16.10
2015,12,12,18,23,14.50
2015,12,12,18,24,12.90
2015,12,12,18,25,16.10
2015,12,12,18,26,19.30
2015,12,12,18,27,4.80
2015,12,12,18,28,14.50
2015,12,12,18,29,14.50
2015,12,12,18,30,14.50
2015,12,12,18,31,27.40
2015,12,12,18,32,22.50
2015,12,12,18,33,19.30
2015,12,12,18,34,20.90
2015,12,12,18,35,17.70
2015,12,12,18,36,17.70
2015,12,12,18,37,20.90
2015,12,12,18,38,14.50
2015,12,12,18,39,14.50
2015,12,12,18,40,17.70
2015,12,12,18,41,22.50
2015,12,12,18,42,20.90
2015,12,12,18,43,17.70
2015,12,12,18,44,14.50
2015,12,12,18,45,16.10
2015,12,12,18,46,17.70
2015,12,12,18,47,17.70
2015,12,12,18,48,16.10
2015,12,12,18,49,35.40
2015,12,12,18,50,24.20
2015,12,12,18,51,24.20
2015,12,12,18,52,30.60
2015,12,12,18,53,24.20
2015,12,12,18,54,17.70
2015,12,12,18,55,24.20
2015,12,12,18,56,17.70
2015,12,12,18,57,19.30
2015,12,12,18,58,25.70
2015,12,12,18,59,20.90
2015,12,12,19,00,14.50
2015,12,12,19,01,17.70
2015,12,12,19,02,20.90
2015,12,12,19,03,22.50
2015,12,12,19,04,27.40
2015,12,12,19,05,24.20
2015,12,12,19,06,32.20
2015,12,12,19,07,30.60
2015,12,12,19,08,48.30
2015,12,12,19,09,37.00
2015,12,12,19,10,30.60
2015,12,12,19,11,25.70
2015,12,12,19,12,25.70
2015,12,12,19,13,29.00
2015,12,12,19,14,32.20
2015,12,12,19,15,29.00
2015,12,12,19,16,20.90
2015,12,12,19,17,22.50